Zurück zum Katalog

FREGAT DEB

AktivLEO
NORAD 47336·DEBRIS·🇷🇺 Russia

Gestartet Jul 18, 2011 von Baikonur Cosmodrome

Loading…

Nächste Überflüge (nächste 24 Stunden)

TLE

AktuellSource: Space-Track

Epoche: Sep 13, 2026, 17:33 UTC

1 47336U 11037NT  26256.73172696  .00062032  00000-0  40308-1 0  9996
2 47336  51.6486  26.9116 0799547 170.1866 191.5732 13.03752298250443

Verfolge FREGAT DEB in Echtzeit mit AllMySat

Download on the App Store